Location: Manhattan
(39.1840°N, 96.5710°W)
Time: 09:07:29
(UTC-05:00)

ISS - Visible Passes

Search period start: 24 March 2017 00:00
Search period end: 03 April 2017 00:00
Orbit: 399 x 409 km, 51.6° (Epoch: 24 March)

Date Brightness Start Highest point End Pass type
(mag) Time Alt. Az. Time Alt. Az. Time Alt. Az.
24 Mar -1.8 05:24:19 23° SE 05:24:19 23° SE 05:25:44 10° SE visible
25 Mar -1.5 06:08:03 12° SSW 06:08:03 12° SSW 06:08:29 10° S visible
25 Mar -1.8 21:06:12 10° S 21:07:12 16° S 21:07:12 16° S visible
26 Mar -1.8 20:15:15 10° SSE 20:16:45 13° SE 20:18:16 10° E visible
26 Mar -1.8 21:49:37 10° WSW 21:51:06 24° WSW 21:51:06 24° WSW visible
27 Mar -3.9 20:57:14 10° SW 21:00:27 65° SE 21:01:59 28° ENE visible
28 Mar -2.0 21:41:43 10° W 21:44:36 28° NNW 21:45:17 26° N visible
29 Mar -2.9 20:48:55 10° WSW 20:52:05 49° NW 20:55:16 10° NE visible
29 Mar -0.5 22:27:32 10° NW 22:28:19 12° NNW 22:28:19 12° NNW visible
30 Mar -1.1 21:34:12 10° WNW 21:36:28 17° NNW 21:38:27 11° NNE visible
31 Mar -1.6 20:41:04 10° W 20:43:49 25° NNW 20:46:34 10° NNE visible
31 Mar -0.5 22:20:47 10° NNW 22:21:04 10° N 22:21:04 10° N visible
01 Apr -0.9 21:27:01 10° NW 21:28:23 12° NNW 21:29:45 10° NNE visible
02 Apr -1.0 20:33:34 10° WNW 20:35:37 15° NNW 20:37:41 10° NNE visible
